Theta_e
300 298 295 298 300 299 301 299 298 298 300 298 299 299 303 305 302 303 305 306 308 312 317 319 319 318 317 319 319 318 316 316 314 314 311 310 309 309 309 311 310 309 310 309
297 292 297 299 302 301 298 296 294 297 298 298 297 296 299 300 301 303 304 305 306 308 310 311 314 316 315 316 317 318 317 317 315 315 315 313 312 310 309 309 307 306 307 308
294 294 298 297 298 297 296 296 294 294 295 295 294 293 294 297 298 300 302 303 304 305 306 308 309 312 314 314 315 316 317 317 316 316 315 313 310 309 308 308 307 303 302 304
294 297 296 296 293 296 291 296 296 293 292 289 293 289 292 295 298 299 299 302 302 303 305 305 305 307 310 312 315 314 314 315 315 316 314 312 311 310 311 311 306 302 300 300
291 294 294 293 293 295 291 296 294 293 291 290 289 289 291 294 295 297 298 299 300 301 301 303 304 305 308 309 311 312 312 313 314 314 314 314 312 313 313 307 302 300 298 297
292 296 295 294 294 295 295 293 291 291 290 285 286 287 289 292 292 295 296 297 298 298 300 303 304 304 306 307 307 309 309 310 312 312 313 313 312 312 310 304 301 299 297 296
292 292 294 296 293 295 294 290 284 283 284 281 287 285 289 293 293 294 295 296 298 299 301 302 303 304 305 305 306 306 307 307 309 310 311 312 311 312 310 308 303 299 297 295
286 284 291 294 293 291 290 289 284 276 279 282 285 282 288 293 294 294 295 296 298 299 300 301 303 304 304 304 305 305 305 305 307 308 309 310 311 310 310 311 308 304 301 298
285 284 290 292 293 292 290 288 290 284 281 281 284 287 290 292 292 293 294 296 297 299 300 301 302 303 303 304 304 303 304 305 306 306 307 307 308 308 309 310 309 306 303 299
288 282 287 291 294 294 292 293 286 287 278 275 280 283 284 289 291 292 294 295 296 297 298 300 301 301 301 302 303 303 303 303 304 305 305 305 306 306 306 307 306 306 305 300
289 287 284 290 287 288 289 288 288 288 286 279 277 282 291 291 292 292 293 294 295 296 297 298 298 299 300 301 301 301 301 301 301 302 303 303 303 304 304 303 304 304 304 302
289 287 283 284 288 288 290 289 289 283 280 284 283 283 291 292 292 291 292 294 297 297 298 297 297 297 298 298 299 299 299 299 299 300 301 301 301 302 301 301 302 303 302 302
290 285 280 280 284 287 286 287 289 288 287 282 280 283 291 292 291 293 294 296 296 296 297 296 296 295 295 295 295 297 297 297 297 297 297 298 298 299 299 299 300 299 298 298
292 284 282 280 281 285 283 285 287 287 283 282 284 285 290 292 292 293 295 295 295 295 295 295 294 292 292 292 293 294 295 296 296 296 295 295 296 297 297 297 298 297 296 295
290 284 283 284 284 285 285 284 285 284 285 281 284 285 288 291 292 293 294 293 292 293 292 292 290 291 291 291 291 292 293 295 295 294 294 294 295 295 295 295 295 295 295 294
289 282 283 280 284 284 282 285 286 286 286 286 286 285 292 293 293 292 291 291 290 290 291 289 289 289 289 290 291 291 292 293 294 294 293 293 293 293 293 293 293 293 293 293
286 283 281 278 278 278 277 280 284 285 285 285 281 286 290 288 288 289 289 290 289 290 290 288 288 289 290 291 291 290 291 293 293 293 292 292 292 291 292 292 291 291 290 291
282 281 281 277 272 272 283 282 283 284 285 287 286 288 289 289 289 289 291 290 290 291 290 288 289 289 291 292 292 292 291 291 291 291 291 291 291 290 290 290 290 289 290 289
284 283 275 275 274 276 281 283 280 280 282 287 285 286 288 288 286 287 290 291 291 293 292 290 290 289 290 290 291 290 289 290 290 289 289 291 291 289 289 288 288 289 288 288
282 285 282 272 272 271 280 281 285 285 277 287 287 287 287 285 281 285 289 291 291 292 292 289 289 289 289 290 290 288 288 288 288 288 288 289 289 288 288 289 288 288 287 286
279 280 278 274 275 277 282 282 283 276 282 283 286 286 285 283 287 289 290 289 290 288 287 288 288 287 288 288 288 286 287 287 288 288 287 287 287 287 288 288 288 287 286 285
277 276 276 276 274 271 283 281 280 285 284 285 285 286 286 288 289 289 289 288 287 286 286 287 286 286 287 287 286 286 285 287 287 287 286 286 285 286 285 285 285 284 284 283
275 280 277 279 278 285 285 286 287 286 286 285 286 288 288 287 286 287 287 286 286 286 286 286 285 285 286 286 286 284 285 286 285 284 283 284 284 284 284 283 283 283 283 283
274 272 277 279 283 281 281 285 284 286 285 287 287 288 286 285 286 285 284 284 285 285 285 285 284 283 284 285 284 284 285 284 283 282 282 283 282 283 283 283 283 283 283 282
276 275 276 275 278 278 281 283 286 286 285 284 285 285 285 285 284 284 283 284 284 284 284 284 283 283 283 284 284 285 283 283 281 281 281 282 283 283 282 283 283 282 283 284
274 277 277 277 282 283 284 285 285 283 283 284 283 283 282 283 283 284 283 284 284 284 284 283 283 282 283 283 283 283 283 282 280 280 281 282 282 283 283 282 282 283 283 284
Wind_Speed
3 4 6 8 3 5 9 7 6 3 4 3 1 7 11 7 10 12 11 10 11 14 12 11 11 11 10 9 9 11 10 10 8 7 5 5 6 5 5 4 5 4 4 4
7 5 2 5 9 12 7 10 4 3 4 3 5 12 10 5 7 8 11 11 11 11 9 10 11 11 13 13 13 12 13 13 11 8 7 5 4 5 5 4 5 5 5 5
6 1 1 9 10 14 6 5 5 4 4 3 10 2 5 4 2 4 5 4 6 9 10 10 11 13 12 15 14 14 13 12 12 12 7 5 3 3 4 5 5 5 5 5
8 4 4 10 9 3 5 3 7 5 4 1 6 2 4 6 10 13 12 12 10 10 9 8 9 11 11 11 11 12 12 12 11 12 10 12 9 8 5 4 3 4 6 5
3 3 6 8 4 2 5 4 6 4 5 3 4 1 4 2 7 13 14 13 12 10 10 10 9 7 6 7 8 10 11 12 11 11 12 9 11 8 6 4 5 5 4 6
5 2 4 3 4 5 11 6 4 3 2 2 3 4 4 4 6 11 12 12 12 12 12 11 9 7 5 5 5 6 9 11 9 11 13 13 13 11 8 6 5 5 5 5
6 3 3 2 5 2 1 2 1 2 1 2 2 3 5 6 7 6 13 11 11 10 12 11 11 9 8 8 6 5 6 8 8 11 12 13 14 13 13 12 7 7 5 5
4 3 3 4 3 1 2 2 1 2 2 2 1 2 6 7 6 5 7 8 9 12 12 12 10 8 7 8 8 6 6 8 9 10 12 11 12 9 10 12 10 8 7 7
5 2 3 5 2 4 1 3 2 6 3 1 2 2 6 7 4 7 7 10 12 13 12 12 9 7 6 6 5 6 7 9 9 11 11 12 11 13 12 14 12 9 10 8
2 5 2 2 2 6 2 4 2 2 3 2 0 5 7 9 10 3 11 11 8 8 13 13 11 10 8 8 8 7 8 9 10 11 12 11 13 14 14 13 14 14 13 11
2 2 1 1 5 1 2 0 4 2 2 1 0 2 4 12 8 4 4 3 7 11 12 11 9 9 9 7 7 8 8 10 11 10 11 13 13 14 14 14 15 16 14 13
0 3 3 2 1 2 1 2 2 2 4 2 1 7 5 6 6 2 3 4 13 11 12 8 8 9 9 11 10 10 10 9 10 10 11 12 13 13 14 15 15 14 15 13
6 1 4 2 1 1 2 2 4 4 2 7 4 4 4 7 7 2 10 17 15 13 13 11 11 8 8 10 11 11 11 11 10 10 10 12 13 13 15 16 15 14 13 13
2 2 3 5 4 4 6 5 3 3 3 4 12 15 10 12 12 11 15 13 11 10 9 9 6 9 11 11 12 11 12 11 11 10 11 13 13 13 14 14 14 14 14 14
1 3 0 2 4 3 4 7 8 10 10 10 14 17 20 13 15 16 12 9 11 10 9 5 9 10 12 13 13 12 12 12 12 12 12 13 12 12 13 14 14 14 14 14
1 4 2 2 4 1 4 12 14 16 18 18 21 27 21 15 10 5 7 9 9 10 5 6 9 12 12 12 12 13 12 12 11 11 13 13 12 12 13 13 13 13 14 15
4 6 3 2 3 2 10 20 21 12 11 14 15 15 6 5 6 5 8 8 10 8 7 6 10 13 14 14 13 14 14 13 12 12 12 12 11 12 13 12 13 14 14 14
7 5 1 3 1 6 4 4 5 14 15 16 16 19 14 11 5 7 10 8 8 9 10 8 12 15 15 14 16 15 14 15 14 14 13 13 12 13 12 12 13 13 12 15
1 5 4 4 5 7 9 5 9 11 11 13 21 17 12 4 2 6 7 9 8 8 9 10 13 13 15 16 17 14 14 14 15 15 16 15 13 12 12 13 13 12 12 13
3 2 3 4 4 8 4 2 5 4 11 12 14 11 10 1 7 6 6 5 6 9 11 13 13 14 14 15 14 13 15 16 18 16 15 14 13 13 15 14 12 11 12 11
8 5 12 5 5 10 13 7 4 5 5 5 9 7 6 7 8 10 3 7 9 12 14 14 12 13 15 15 14 15 16 18 17 16 15 14 12 13 14 13 10 10 10 10
12 12 8 7 7 14 14 11 11 5 1 4 6 7 8 10 9 9 11 12 14 14 13 12 12 12 14 14 12 15 17 17 16 15 15 15 14 12 11 12 10 10 11 11
8 9 10 15 12 1 21 6 15 3 4 5 5 8 10 9 9 11 13 14 14 15 12 11 11 13 16 15 12 15 17 16 15 14 15 15 14 12 12 12 12 9 9 9
7 5 4 3 12 15 11 14 5 6 10 6 9 10 6 12 13 14 12 11 11 12 13 11 12 15 18 14 13 15 16 13 12 14 15 14 12 12 11 9 8 9 9 9
4 14 8 6 12 1 10 16 17 12 12 10 12 11 13 13 13 13 12 13 13 14 13 11 13 15 19 15 15 15 15 11 11 13 13 14 11 12 11 10 10 9 11 12
9 10 12 11 10 7 6 12 13 13 14 16 11 9 10 10 14 14 14 13 14 14 15 14 14 16 17 16 16 16 13 9 11 13 11 11 10 10 9 9 10 17 24 21
Wind_Direction
21 89 133 165 182 106 121 124 124 81 51 310 297 280 264 233 228 249 255 251 241 244 254 246 235 228 231 230 219 220 208 204 194 194 187 216 222 220 227 217 184 220 236 247
62 87 188 102 127 122 114 130 102 99 36 336 335 290 319 316 263 286 282 264 269 270 259 250 248 229 221 227 224 219 219 210 205 203 210 212 204 218 226 215 193 211 221 227
80 97 169 121 123 116 82 141 150 112 96 59 326 289 29 34 8 8 340 309 316 297 290 285 263 245 231 226 226 224 222 222 215 215 213 207 182 196 204 220 223 213 221 237
83 309 101 97 79 96 100 67 108 99 182 143 356 121 48 3 84 56 38 44 30 6 347 322 292 267 250 248 244 239 232 227 224 217 222 227 236 246 241 241 220 204 208 225
53 57 55 61 39 332 109 112 91 89 91 172 22 201 96 270 36 28 18 10 16 6 355 350 348 329 300 270 250 248 241 233 226 224 230 237 243 249 252 209 194 202 211 226
65 22 30 64 46 84 138 110 85 94 142 101 348 334 67 42 3 24 48 35 18 3 6 16 20 11 353 334 291 275 253 245 236 232 234 238 246 249 241 213 210 206 202 210
21 14 355 42 86 43 110 162 155 133 99 113 348 299 64 33 43 79 76 50 31 23 26 24 26 13 1 355 338 306 279 262 246 240 240 239 244 245 240 239 217 201 211 212
149 177 14 358 19 151 69 320 19 139 144 117 25 221 108 90 103 101 90 43 30 33 34 33 20 8 353 345 339 321 295 271 249 242 240 241 246 248 250 246 236 227 221 216
160 77 326 35 12 340 109 65 16 99 28 253 324 179 77 137 114 115 59 38 35 37 32 18 13 8 343 326 316 303 288 274 259 252 248 245 242 242 245 247 245 238 233 219
132 115 33 342 251 62 21 123 109 30 147 183 166 290 135 171 156 81 32 39 40 23 2 352 358 353 346 331 317 301 280 266 261 255 246 241 236 236 241 246 245 242 240 228
132 74 25 192 28 113 101 130 52 81 348 111 156 235 179 174 156 37 29 37 358 342 349 354 354 356 345 328 315 307 300 295 285 274 267 258 258 253 243 237 238 240 240 234
157 102 103 85 144 302 255 179 192 220 151 102 155 247 181 140 164 210 33 354 343 358 348 354 358 348 356 356 350 336 323 308 300 292 281 274 267 257 257 260 258 252 247 241
174 111 118 105 167 214 214 74 98 107 164 206 212 220 94 165 221 318 346 340 339 339 345 354 358 5 357 350 340 334 330 329 320 305 291 280 272 270 263 259 254 251 251 250
80 134 203 179 120 124 149 169 174 177 197 240 239 268 220 262 302 319 319 324 325 320 326 337 351 348 341 334 330 324 323 325 319 313 300 291 287 278 271 266 261 257 248 240
67 139 142 76 112 93 171 194 198 215 225 227 265 270 268 271 284 294 306 305 314 313 330 334 334 331 329 328 326 326 323 319 319 308 299 292 291 285 281 274 265 255 250 253
14 134 92 39 76 120 250 239 236 236 242 253 257 268 282 272 271 244 267 281 284 293 290 321 329 328 321 318 304 306 309 309 311 301 297 298 293 287 280 274 269 263 258 248
120 132 133 221 36 346 275 228 219 218 219 221 228 241 282 253 260 242 279 284 282 275 234 305 319 330 314 299 294 301 307 303 301 294 289 291 286 284 281 276 273 266 258 253
134 117 99 111 96 219 253 303 275 239 255 234 254 263 277 289 297 263 250 243 257 247 228 279 323 324 308 303 298 311 311 305 298 295 294 284 285 284 282 276 269 267 261 255
2 133 118 192 212 316 298 232 181 190 264 219 232 252 268 305 248 253 214 214 265 266 242 289 308 297 293 296 296 304 301 298 293 292 288 292 286 286 282 272 267 264 260 258
235 261 181 179 206 216 227 145 155 142 276 234 221 243 257 339 262 288 205 220 271 276 266 292 294 291 286 288 292 291 290 292 293 292 292 294 287 280 279 277 269 263 258 259
162 182 204 181 230 273 239 179 186 144 248 148 173 205 213 210 246 300 229 272 283 279 285 286 290 288 287 292 291 287 292 291 296 298 292 287 281 278 277 275 270 264 260 254
168 160 184 177 213 261 159 134 199 194 131 148 180 203 215 234 267 274 279 285 288 289 292 286 286 285 286 285 282 278 280 284 290 293 294 292 287 282 280 268 260 245 248 246
197 187 177 192 206 170 185 204 210 136 143 190 198 229 231 256 265 278 283 287 285 288 286 281 275 279 281 280 274 274 275 286 292 293 288 285 282 279 275 269 264 254 240 241
225 177 212 138 236 220 230 246 239 207 216 213 219 232 220 252 266 267 268 267 269 278 281 283 278 276 279 280 276 268 276 282 283 280 284 285 283 283 275 264 260 254 249 241
171 144 177 263 270 320 244 232 236 217 221 237 243 239 241 253 260 264 274 276 277 278 278 275 270 272 276 283 278 277 276 276 274 281 283 284 280 277 276 262 255 244 243 241
194 176 190 215 212 184 227 212 217 209 224 229 230 250 236 234 253 260 261 260 264 270 274 276 270 271 276 278 278 279 283 274 268 277 280 276 276 273 269 269 273 249 251 250